Location: Poughquag
(41.6090°N, 73.6820°W)
Time: 02:16:20
(UTC-05:00)

Courier 1B - All Passes

Search period start: 17 February 2020 00:00
Search period end: 27 February 2020 00:00
Orbit: 962 x 1209 km, 28.3° (Epoch: 17 February)

Date Brightness Start Highest point End Pass type
(mag) Time Alt. Az. Time Alt. Az. Time Alt. Az.
17 Feb - 15:48:07 10° S 15:51:16 13° SSE 15:54:21 10° SE daylight
17 Feb - 17:38:55 10° SW 17:44:24 24° S 17:49:39 10° ESE daylight
17 Feb - 19:32:05 10° WSW 19:37:36 26° S 19:42:54 10° SE visible
17 Feb - 21:26:37 10° WSW 21:30:37 17° SSW 21:34:33 10° SSE visible
18 Feb - 14:56:53 10° SSE 14:57:42 10° SSE 14:58:32 10° SSE daylight
18 Feb - 16:45:28 10° SSW 16:50:48 22° SSE 16:55:54 10° ESE daylight
18 Feb - 18:38:17 10° SW 18:44:01 27° S 18:49:30 10° SE visible
18 Feb - 20:32:24 10° WSW 20:37:08 20° SSW 20:41:44 10° SSE visible
19 Feb - 15:52:11 10° SSW 15:57:12 19° SSE 16:02:01 10° ESE daylight
19 Feb - 17:44:32 10° SW 17:50:26 27° S 17:56:03 10° ESE daylight
19 Feb - 19:38:21 10° WSW 19:43:37 23° SSW 19:48:41 10° SE visible
19 Feb - 21:34:41 10° SW 21:36:32 11° SSW 21:38:21 10° S visible
20 Feb - 14:59:08 10° SSW 15:03:35 17° SSE 15:07:54 10° ESE daylight
20 Feb - 16:50:52 10° SW 16:56:48 26° S 17:02:28 10° ESE daylight
20 Feb - 18:44:23 10° WSW 18:50:04 26° S 18:55:29 10° SE visible
20 Feb - 20:39:29 10° SW 20:43:04 15° SSW 20:46:34 10° S visible
21 Feb - 14:06:30 10° S 14:09:58 14° SSE 14:13:22 10° SE daylight
21 Feb - 15:57:17 10° SW 16:03:09 25° S 16:08:47 10° ESE daylight
21 Feb - 17:50:28 10° WSW 17:56:27 27° S 18:02:10 10° SE visible
21 Feb - 19:45:00 10° WSW 19:49:35 18° SSW 19:54:00 10° SSE visible
22 Feb - 13:15:10 10° SSE 13:16:22 10° SSE 13:17:33 10° SE daylight
22 Feb - 15:03:50 10° SSW 15:09:30 23° SSE 15:14:59 10° ESE daylight
22 Feb - 16:56:38 10° SW 17:02:49 28° S 17:08:43 10° SE daylight
22 Feb - 18:50:46 10° WSW 18:56:02 22° SSW 19:01:06 10° SSE visible
23 Feb - 14:10:34 10° SSW 14:15:50 20° SSE 14:20:59 10° ESE daylight
23 Feb - 16:02:52 10° SW 16:09:10 28° S 16:15:10 10° ESE daylight
23 Feb - 17:56:40 10° WSW 18:02:28 25° SSW 18:07:59 10° SE visible
23 Feb - 19:52:30 10° SW 19:55:27 13° SSW 19:58:20 10° S visible
24 Feb - 13:17:35 10° SSW 13:22:12 17° SSE 13:26:44 10° ESE daylight
24 Feb - 15:09:12 10° SW 15:15:28 27° S 15:21:31 10° ESE daylight
24 Feb - 17:02:41 10° WSW 17:08:50 27° S 17:14:42 10° SE daylight
24 Feb - 18:57:37 10° WSW 19:01:57 17° SSW 19:06:08 10° SSE visible
25 Feb - 12:25:05 10° S 12:28:34 13° SSE 12:32:01 10° SE daylight
25 Feb - 14:15:39 10° SW 14:21:45 25° SSE 14:27:44 10° ESE daylight
25 Feb - 16:08:46 10° WSW 16:15:10 29° S 16:21:18 10° SE daylight
25 Feb - 18:03:12 10° WSW 18:08:23 20° SSW 18:13:23 10° SSE visible
26 Feb - 13:22:15 10° SSW 13:28:05 23° SSE 13:33:48 10° ESE daylight
26 Feb - 15:14:56 10° SW 15:21:27 30° S 15:27:45 10° ESE daylight
26 Feb - 17:08:59 10° WSW 17:14:47 24° SSW 17:20:22 10° SE daylight
26 Feb - 19:05:58 10° SW 19:07:45 11° SSW 19:09:32 10° SSW visible
